Weather History for KGRF - January, 2014

Change the Weather History Date:

Thursday, January 30, 2014

  Actual Average Record
Temperature  
Mean Temperature 42 °F -  
Max Temperature 46 °F 47 °F 59 °F (2003)
Min Temperature 39 °F 34 °F 23 °F (2000)
Degree Days  
Heating Degree Days 22    
Moisture  
Dew Point 41 °F    
Average Humidity 94    
Maximum Humidity 100    
Minimum Humidity 76    
Precipitation  
Precipitation 0.08 in - - ()
Sea Level Pressure  
Sea Level Pressure 29.89 in    
Wind  
Wind Speed 11 mph (South)    
Max Wind Speed 18 mph    
Max Gust Speed 29 mph    
Visibility 10 miles    
Events Rain    
Averages and records for this station are not official NWS values.
T = Trace of Precipitation, MM = Missing Value Source: NWS Daily Summary

Daily Weather History Graph

Daily Weather History Graph

Search for Another Location

Airport or City:

Trip Planner

Search our weather history database for the weather conditions in past years. The results will help you decide how hot, cold, wet, or windy it might be!

Date:

Astronomy

Jan. 30, 2014 Rise Set
Actual Time 7:37 AM PST 5:10 PM PST
Civil Twilight 7:04 AM PST 5:42 PM PST
Nautical Twilight 6:28 AM PST 6:19 PM PST
Astronomical Twilight 5:52 AM PST 6:55 PM PST
Moon 7:04 AM PST (1/30) 5:33 PM PST (1/30)
Length of Visible Light 10h 37m
Length of Day
9h 32m
Waning Crescent, 0% of the Moon is Illuminated
Jan 30
Waning Crescent
Jan 30
New
Feb 6
First Quarter
Feb 14
Full
Feb 22
Last Quarter

Hourly Weather History & Observations

Time (PST) Temp. Windchill Dew Point Humidity Pressure Visibility Wind Dir Wind Speed Gust Speed Precip Events Conditions
12:33 AM 42.8 °F 37.0 °F 42.8 °F 100% 29.85 in 8.0 mi South 10.4 mph - N/A   Overcast
12:48 AM 42.8 °F 36.2 °F 42.8 °F 100% 29.85 in 10.0 mi South 12.7 mph - N/A   Overcast
12:53 AM 42.8 °F 35.8 °F 42.8 °F 100% 29.85 in 10.0 mi South 13.8 mph - N/A   Overcast
12:58 AM 42.6 °F 36.8 °F 42.3 °F 99% 29.87 in 10.0 mi South 10.4 mph - N/A   Overcast
1:58 AM 42.6 °F 35.6 °F 42.4 °F 99% 29.87 in 10.0 mi SSE 13.8 mph - N/A   Overcast
2:58 AM 42.6 °F 36.8 °F 42.4 °F 99% 29.88 in 10.0 mi South 10.4 mph 21.9 mph N/A   Overcast
3:13 AM 42.8 °F 36.2 °F 42.8 °F 100% 29.86 in 10.0 mi SSE 12.7 mph - N/A   Overcast
3:58 AM 42.3 °F 35.9 °F 41.9 °F 99% 29.88 in 10.0 mi SSE 11.5 mph - N/A   Overcast
4:03 AM 42.8 °F 37.5 °F 41.0 °F 93% 29.86 in 10.0 mi South 9.2 mph - N/A   Mostly Cloudy
4:23 AM 41.0 °F 35.8 °F 41.0 °F 100% 29.86 in 10.0 mi South 8.1 mph - N/A   Mostly Cloudy
4:53 AM 41.0 °F 33.9 °F 41.0 °F 100% 29.86 in 10.0 mi SSE 12.7 mph - N/A   Mostly Cloudy
4:58 AM 41.9 °F 35.0 °F 41.0 °F 97% 29.88 in 10.0 mi SSE 12.7 mph - N/A   Mostly Cloudy
5:53 AM 41.0 °F 34.7 °F 41.0 °F 100% 29.85 in 10.0 mi South 10.4 mph 21.9 mph N/A   Scattered Clouds
5:58 AM 41.5 °F 35.4 °F 40.5 °F 96% 29.87 in 10.0 mi South 10.4 mph 21.9 mph N/A   Scattered Clouds
6:58 AM 40.6 °F 33.8 °F 40.3 °F 99% 29.88 in 10.0 mi South 11.5 mph - N/A   Partly Cloudy
7:13 AM 41.0 °F 35.2 °F 41.0 °F 100% 29.86 in 10.0 mi South 9.2 mph - N/A   Mostly Cloudy
7:58 AM 41.5 °F 34.6 °F 39.9 °F 94% 29.89 in 10.0 mi South 12.7 mph 21.9 mph N/A   Mostly Cloudy
8:18 AM 41.0 °F 33.1 °F 39.2 °F 93% 29.88 in 10.0 mi South 15.0 mph 19.6 mph N/A   Scattered Clouds
8:58 AM 41.7 °F 35.2 °F 39.7 °F 93% 29.91 in 10.0 mi South 11.5 mph 20.7 mph N/A   Clear
9:03 AM 41.0 °F 34.3 °F 39.2 °F 93% 29.89 in 10.0 mi South 11.5 mph - N/A   Mostly Cloudy
9:58 AM 43.2 °F 37.0 °F 39.6 °F 87% 29.93 in 10.0 mi South 11.5 mph - N/A   Mostly Cloudy
10:58 AM 44.8 °F 39.0 °F 38.7 °F 79% 29.93 in 10.0 mi South 11.5 mph - N/A   Mostly Cloudy
11:29 AM 46.4 °F 40.1 °F 39.2 °F 76% 29.90 in 10.0 mi South 15.0 mph - N/A   Scattered Clouds
11:58 AM 46.0 °F 39.3 °F 38.8 °F 76% 29.91 in 10.0 mi South 16.1 mph 21.9 mph N/A   Partly Cloudy
12:36 PM 46.4 °F 41.5 °F 41.0 °F 81% 29.89 in 6.0 mi South 10.4 mph - N/A Rain Light Rain
12:37 PM 46.4 °F 41.5 °F 41.0 °F 81% 29.89 in 10.0 mi South 10.4 mph - N/A   Mostly Cloudy
12:42 PM 44.6 °F 39.2 °F 41.0 °F 87% 29.88 in 10.0 mi South 10.4 mph - N/A   Mostly Cloudy
12:53 PM 44.6 °F 39.7 °F 41.0 °F 87% 29.88 in 10.0 mi South 9.2 mph - N/A   Mostly Cloudy
12:58 PM 44.8 °F 40.4 °F 41.2 °F 87% 29.90 in 10.0 mi SSE 8.1 mph - 0.01 in   Overcast
1:11 PM 44.6 °F 40.2 °F 42.8 °F 93% 29.88 in 10.0 mi South 8.1 mph - N/A Rain Light Rain
1:12 PM 44.6 °F 40.2 °F 42.8 °F 93% 29.88 in 10.0 mi South 8.1 mph - N/A   Scattered Clouds
1:17 PM 44.6 °F 40.2 °F 42.8 °F 93% 29.87 in 10.0 mi South 8.1 mph - N/A   Mostly Cloudy
1:27 PM 42.8 °F 34.5 °F 42.8 °F 100% 29.88 in 1.0 mi SSW 18.4 mph 28.8 mph N/A   Overcast
1:32 PM 42.8 °F 37.0 °F 41.0 °F 93% 29.88 in 2.0 mi SSW 10.4 mph 28.8 mph N/A   Overcast
1:37 PM 42.8 °F 37.0 °F 41.0 °F 93% 29.88 in 4.0 mi South 10.4 mph 28.8 mph N/A Rain Overcast
1:58 PM 42.4 °F 36.5 °F 42.1 °F 99% 29.89 in 10.0 mi South 10.4 mph - 0.07 in Rain Light Rain
2:08 PM 42.8 °F 36.2 °F 42.8 °F 100% 29.87 in 10.0 mi South 12.7 mph - N/A   Mostly Cloudy
2:13 PM 42.8 °F 37.0 °F 42.8 °F 100% 29.87 in 10.0 mi South 10.4 mph - N/A   Mostly Cloudy
2:23 PM 42.8 °F 36.6 °F 42.8 °F 100% 29.87 in 10.0 mi South 11.5 mph - N/A   Mostly Cloudy
2:58 PM 43.0 °F 37.2 °F 41.7 °F 95% 29.88 in 10.0 mi South 10.4 mph - N/A   Scattered Clouds
3:58 PM 41.7 °F 34.1 °F 40.3 °F 95% 29.89 in 10.0 mi South 15.0 mph - N/A   Scattered Clouds
4:33 PM 41.0 °F 34.3 °F 39.2 °F 93% 29.87 in 10.0 mi South 11.5 mph - N/A   Mostly Cloudy
4:58 PM 41.0 °F 34.3 °F 39.7 °F 95% 29.90 in 10.0 mi South 11.5 mph - N/A   Overcast
5:38 PM 39.2 °F 33.0 °F 39.2 °F 100% 29.89 in 10.0 mi SSE 9.2 mph - N/A   Overcast
5:58 PM 39.9 °F 33.4 °F 39.4 °F 98% 29.91 in 10.0 mi SSE 10.4 mph - N/A   Overcast
6:08 PM 39.2 °F 32.0 °F 39.2 °F 100% 29.89 in 10.0 mi SSE 11.5 mph - N/A   Overcast
6:28 PM 39.2 °F 32.5 °F 39.2 °F 100% 29.89 in 10.0 mi SSE 10.4 mph - N/A   Mostly Cloudy
6:58 PM 40.1 °F 33.2 °F 39.2 °F 97% 29.91 in 10.0 mi SSE 11.5 mph 19.6 mph N/A   Mostly Cloudy
8:06 PM 41.0 °F 33.5 °F 39.2 °F 93% 29.89 in 10.0 mi South 13.8 mph - N/A   Scattered Clouds
8:30 PM 41.0 °F 33.9 °F 39.2 °F 93% 29.90 in 10.0 mi South 12.7 mph - N/A Rain Rain
8:58 PM 40.6 °F 33.4 °F 39.7 °F 97% 29.93 in 10.0 mi SSE 12.7 mph - 0.00 in   Light Drizzle
9:05 PM 41.0 °F 35.2 °F 39.2 °F 93% 29.91 in 10.0 mi SSE 9.2 mph - N/A   Overcast
9:07 PM 41.0 °F 34.7 °F 39.2 °F 93% 29.91 in 10.0 mi SSE 10.4 mph - N/A   Light Drizzle
9:32 PM 41.0 °F 34.3 °F 39.2 °F 93% 29.91 in 10.0 mi South 11.5 mph - N/A   Overcast
9:51 PM 41.0 °F 34.7 °F 39.2 °F 93% 29.91 in 10.0 mi South 10.4 mph - N/A   Light Drizzle
9:58 PM 40.5 °F 35.1 °F 39.4 °F 96% 29.94 in 10.0 mi SSE 8.1 mph - 0.00 in   Light Drizzle
10:55 PM 41.0 °F 35.8 °F 39.2 °F 93% 29.92 in 10.0 mi SSE 8.1 mph - N/A   Overcast
10:58 PM 40.3 °F 34.9 °F 39.2 °F 96% 29.94 in 10.0 mi SSE 8.1 mph - 0.00 in   Overcast
11:58 PM 40.3 °F 34.9 °F 39.6 °F 97% 29.95 in 10.0 mi SSE 8.1 mph - N/A   Overcast